QPF
0.01 0.01 0.00 0.00 0.00 0.00 0.00 0.00 0.00 0.00 0.00 0.00 0.00 0.00 0.00 0.00 0.00 0.00 0.00 0.00 0.00 0.00 0.00 0.00 0.00 0.00 0.00 0.00 0.00 0.00 0.00 0.00 0.00 0.00 0.00 0.00 0.00 0.00 0.00 0.00 0.00 0.00 0.00 0.00 0.00
0.00 0.00 0.00 0.00 0.00 0.00 0.00 0.00 0.00 0.00 0.00 0.00 0.00 0.00 0.00 0.00 0.00 0.00 0.00 0.00 0.00 0.00 0.00 0.00 0.00 0.00 0.00 0.00 0.00 0.00 0.00 0.00 0.00 0.00 0.00 0.00 0.00 0.00 0.00 0.00 0.00 0.00 0.00 0.00 0.00
0.00 0.00 0.00 0.00 0.00 0.00 0.00 0.00 0.00 0.00 0.00 0.00 0.00 0.00 0.00 0.00 0.00 0.00 0.00 0.00 0.00 0.00 0.00 0.00 0.00 0.00 0.00 0.00 0.00 0.00 0.00 0.00 0.00 0.00 0.00 0.00 0.00 0.00 0.00 0.00 0.00 0.00 0.00 0.00 0.00
0.00 0.00 0.00 0.00 0.00 0.00 0.00 0.00 0.00 0.00 0.00 0.00 0.00 0.00 0.00 0.00 0.00 0.00 0.00 0.00 0.00 0.00 0.00 0.00 0.00 0.00 0.00 0.00 0.00 0.00 0.00 0.00 0.00 0.00 0.00 0.00 0.00 0.00 0.00 0.00 0.00 0.00 0.00 0.00 0.00
0.00 0.00 0.00 0.00 0.00 0.00 0.00 0.00 0.00 0.00 0.01 0.01 0.00 0.00 0.00 0.00 0.00 0.00 0.00 0.00 0.00 0.00 0.00 0.00 0.00 0.00 0.00 0.00 0.00 0.00 0.00 0.00 0.00 0.00 0.00 0.00 0.00 0.00 0.00 0.00 0.00 0.00 0.00 0.00 0.00
0.00 0.00 0.00 0.00 0.00 0.00 0.00 0.00 0.00 0.00 0.01 0.01 0.00 0.00 0.00 0.00 0.00 0.00 0.00 0.00 0.00 0.00 0.00 0.00 0.00 0.00 0.00 0.00 0.00 0.00 0.00 0.00 0.00 0.00 0.00 0.00 0.00 0.00 0.00 0.00 0.00 0.00 0.00 0.00 0.00
0.00 0.00 0.00 0.00 0.00 0.00 0.00 0.00 0.00 0.00 0.00 0.00 0.00 0.00 0.00 0.00 0.00 0.00 0.00 0.00 0.00 0.00 0.00 0.00 0.00 0.00 0.00 0.00 0.00 0.00 0.00 0.00 0.00 0.00 0.00 0.00 0.00 0.00 0.00 0.00 0.00 0.00 0.00 0.00 0.00
0.00 0.00 0.00 0.00 0.00 0.00 0.00 0.00 0.00 0.00 0.00 0.00 0.00 0.00 0.00 0.00 0.00 0.00 0.00 0.00 0.00 0.00 0.00 0.00 0.00 0.00 0.00 0.00 0.00 0.00 0.00 0.00 0.00 0.00 0.00 0.00 0.00 0.00 0.00 0.00 0.00 0.00 0.00 0.00 0.00
0.00 0.00 0.00 0.00 0.00 0.00 0.00 0.00 0.00 0.00 0.00 0.00 0.00 0.00 0.00 0.00 0.00 0.00 0.00 0.00 0.00 0.00 0.00 0.00 0.00 0.00 0.00 0.00 0.00 0.00 0.00 0.00 0.00 0.00 0.00 0.00 0.00 0.00 0.00 0.00 0.00 0.00 0.00 0.00 0.00
0.00 0.00 0.00 0.00 0.00 0.00 0.00 0.00 0.00 0.00 0.00 0.00 0.00 0.00 0.00 0.00 0.00 0.00 0.00 0.00 0.00 0.00 0.00 0.00 0.00 0.00 0.00 0.00 0.00 0.00 0.00 0.00 0.00 0.00 0.00 0.00 0.00 0.00 0.00 0.00 0.00 0.00 0.00 0.00 0.00
0.00 0.00 0.00 0.00 0.00 0.00 0.00 0.00 0.00 0.00 0.00 0.00 0.00 0.00 0.00 0.00 0.00 0.00 0.00 0.00 0.00 0.00 0.00 0.00 0.00 0.00 0.00 0.00 0.00 0.00 0.00 0.00 0.00 0.00 0.00 0.00 0.00 0.00 0.00 0.00 0.00 0.00 0.00 0.00 0.00
0.00 0.00 0.00 0.00 0.00 0.00 0.00 0.00 0.00 0.00 0.00 0.00 0.00 0.00 0.00 0.00 0.00 0.00 0.00 0.00 0.00 0.00 0.00 0.00 0.00 0.00 0.00 0.00 0.00 0.00 0.00 0.00 0.00 0.00 0.00 0.00 0.00 0.00 0.00 0.00 0.00 0.00 0.00 0.00 0.00
0.00 0.00 0.00 0.00 0.00 0.00 0.00 0.00 0.00 0.00 0.00 0.00 0.00 0.00 0.00 0.00 0.00 0.00 0.00 0.00 0.00 0.00 0.00 0.00 0.00 0.00 0.00 0.00 0.00 0.00 0.00 0.00 0.00 0.00 0.00 0.00 0.00 0.00 0.00 0.00 0.00 0.00 0.00 0.00 0.00
0.00 0.00 0.00 0.00 0.00 0.00 0.00 0.00 0.00 0.00 0.00 0.00 0.00 0.00 0.00 0.00 0.00 0.00 0.00 0.00 0.00 0.00 0.00 0.00 0.00 0.00 0.00 0.00 0.00 0.00 0.00 0.00 0.00 0.00 0.00 0.00 0.00 0.00 0.00 0.00 0.00 0.00 0.00 0.00 0.00
0.00 0.00 0.00 0.00 0.00 0.00 0.00 0.00 0.00 0.00 0.00 0.00 0.00 0.00 0.00 0.00 0.00 0.00 0.00 0.00 0.00 0.00 0.01 0.00 0.00 0.00 0.00 0.00 0.00 0.00 0.00 0.00 0.00 0.00 0.00 0.00 0.00 0.00 0.00 0.00 0.00 0.00 0.00 0.00 0.00
0.00 0.00 0.00 0.00 0.00 0.00 0.00 0.00 0.00 0.00 0.00 0.00 0.00 0.00 0.00 0.00 0.00 0.00 0.00 0.00 0.00 0.00 0.00 0.00 0.00 0.00 0.00 0.00 0.00 0.00 0.00 0.00 0.00 0.00 0.00 0.00 0.00 0.00 0.00 0.00 0.00 0.00 0.00 0.00 0.00
0.00 0.00 0.00 0.00 0.00 0.00 0.00 0.00 0.00 0.00 0.00 0.00 0.00 0.00 0.00 0.00 0.00 0.00 0.00 0.00 0.01 0.02 0.01 0.00 0.00 0.00 0.00 0.00 0.00 0.00 0.00 0.00 0.00 0.00 0.00 0.00 0.00 0.00 0.00 0.00 0.00 0.00 0.00 0.00 0.00
0.00 0.00 0.00 0.00 0.00 0.00 0.00 0.00 0.00 0.00 0.00 0.00 0.00 0.00 0.00 0.00 0.00 0.00 0.00 0.00 0.05 0.06 0.06 0.06 0.02 0.02 0.00 0.00 0.00 0.00 0.00 0.00 0.00 0.00 0.00 0.00 0.00 0.00 0.00 0.00 0.00 0.00 0.00 0.00 0.00
0.00 0.00 0.00 0.00 0.00 0.00 0.00 0.00 0.00 0.00 0.00 0.00 0.00 0.00 0.00 0.00 0.00 0.00 0.00 0.00 0.01 0.02 0.09 0.09 0.14 0.05 0.00 0.00 0.00 0.00 0.00 0.00 0.00 0.00 0.00 0.00 0.00 0.00 0.00 0.00 0.00 0.00 0.00 0.00 0.00
0.00 0.00 0.00 0.00 0.00 0.00 0.00 0.00 0.00 0.00 0.00 0.00 0.00 0.00 0.00 0.00 0.00 0.00 0.00 0.00 0.00 0.01 0.01 0.04 0.05 0.03 0.03 0.00 0.00 0.00 0.00 0.00 0.00 0.00 0.00 0.00 0.00 0.00 0.00 0.00 0.00 0.00 0.00 0.00 0.00
0.00 0.00 0.00 0.00 0.00 0.00 0.00 0.00 0.00 0.00 0.00 0.00 0.00 0.00 0.00 0.00 0.00 0.00 0.00 0.00 0.01 0.00 0.01 0.02 0.03 0.01 0.02 0.01 0.01 0.00 0.00 0.00 0.00 0.00 0.00 0.00 0.00 0.00 0.00 0.00 0.00 0.00 0.00 0.00 0.00
0.00 0.00 0.00 0.00 0.00 0.00 0.00 0.00 0.00 0.00 0.00 0.00 0.00 0.00 0.00 0.00 0.00 0.00 0.00 0.01 0.01 0.01 0.00 0.02 0.02 0.01 0.01 0.00 0.00 0.00 0.00 0.00 0.00 0.00 0.00 0.00 0.00 0.00 0.00 0.00 0.00 0.00 0.00 0.00 0.00
0.00 0.00 0.00 0.00 0.00 0.00 0.00 0.00 0.00 0.00 0.00 0.00 0.00 0.00 0.00 0.00 0.04 0.00 0.00 0.00 0.01 0.00 0.02 0.02 0.02 0.01 0.00 0.01 0.01 0.00 0.00 0.00 0.00 0.00 0.00 0.00 0.00 0.00 0.00 0.00 0.00 0.00 0.00 0.00 0.00
0.00 0.00 0.00 0.00 0.00 0.00 0.00 0.00 0.00 0.00 0.00 0.01 0.00 0.00 0.01 0.01 0.02 0.03 0.00 0.00 0.01 0.01 0.03 0.06 0.02 0.00 0.00 0.00 0.00 0.00 0.00 0.00 0.00 0.00 0.00 0.00 0.00 0.00 0.00 0.00 0.00 0.00 0.00 0.00 0.00
0.00 0.00 0.00 0.00 0.00 0.00 0.00 0.00 0.00 0.00 0.00 0.00 0.00 0.01 0.02 0.04 0.01 0.00 0.00 0.00 0.00 0.00 0.01 0.02 0.01 0.00 0.00 0.00 0.00 0.00 0.00 0.00 0.00 0.00 0.00 0.00 0.00 0.00 0.00 0.00 0.00 0.00 0.00 0.00 0.00
0.00 0.00 0.00 0.00 0.00 0.00 0.00 0.00 0.00 0.00 0.00 0.00 0.01 0.01 0.01 0.02 0.01 0.00 0.01 0.03 0.06 0.00 0.01 0.01 0.01 0.00 0.00 0.00 0.00 0.00 0.00 0.00 0.00 0.00 0.00 0.00 0.00 0.00 0.00 0.00 0.00 0.00 0.00 0.00 0.00
0.00 0.00 0.00 0.00 0.00 0.00 0.00 0.00 0.00 0.00 0.00 0.00 0.00 0.01 0.00 0.00 0.00 0.00 0.00 0.00 0.02 0.01 0.01 0.01 0.01 0.01 0.00 0.00 0.00 0.00 0.00 0.00 0.00 0.00 0.00 0.00 0.00 0.00 0.00 0.00 0.00 0.00 0.00 0.00 0.00
MSLP
1021.75 1021.40 1021.03 1020.72 1020.49 1020.19 1019.69 1019.23 1019.01 1018.73 1018.33 1018.17 1017.68 1017.44 1016.84 1016.36 1015.65 1015.21 1014.25 1013.21 1012.93 1012.82 1012.48 1012.24 1011.80 1011.73 1011.56 1011.01 1010.78 1010.72 1009.92 1008.34 1007.65 1007.48 1006.55 1006.17 1005.58 1005.08 1004.86 1004.64 1004.17 1003.69 1003.84 1004.23 1004.60
1021.79 1021.37 1020.97 1020.59 1020.23 1019.82 1019.45 1019.18 1018.87 1018.47 1018.25 1017.97 1017.59 1017.15 1016.71 1016.23 1015.50 1014.45 1013.65 1013.22 1012.81 1012.76 1012.37 1011.99 1011.44 1011.38 1011.32 1010.60 1010.30 1009.58 1008.52 1007.47 1006.90 1006.82 1006.39 1006.05 1005.83 1005.28 1005.03 1004.88 1004.30 1004.00 1004.07 1004.29 1004.45
1021.79 1021.39 1021.01 1020.60 1020.12 1019.68 1019.34 1019.03 1018.60 1018.17 1017.87 1017.48 1017.20 1016.88 1016.49 1016.00 1015.07 1012.99 1012.60 1012.90 1012.64 1012.42 1012.28 1011.95 1011.66 1011.27 1010.77 1010.33 1009.44 1008.50 1007.04 1006.85 1006.48 1006.42 1006.49 1006.19 1005.70 1005.49 1005.18 1004.67 1004.40 1004.09 1003.95 1004.32 1004.42
1021.64 1021.20 1020.79 1020.36 1019.89 1019.54 1019.20 1018.86 1018.52 1018.10 1017.67 1017.42 1017.04 1016.49 1016.01 1015.74 1014.55 1013.16 1012.81 1012.82 1012.61 1012.25 1011.99 1011.84 1011.58 1011.07 1010.10 1009.26 1008.93 1007.87 1006.96 1006.73 1006.55 1006.69 1006.45 1006.16 1005.71 1005.14 1005.09 1004.36 1004.49 1004.55 1004.50 1004.58 1004.48
1021.53 1021.04 1020.57 1020.06 1019.59 1019.13 1018.74 1018.52 1018.11 1017.75 1017.50 1017.33 1016.97 1016.73 1016.37 1015.40 1013.71 1013.03 1013.07 1012.94 1012.58 1012.44 1012.31 1012.01 1011.39 1010.79 1009.40 1008.89 1008.79 1007.44 1006.49 1006.72 1006.85 1006.66 1006.33 1006.37 1005.20 1005.14 1004.49 1004.30 1004.38 1004.39 1004.25 1004.06 1004.12
1021.36 1020.87 1020.34 1019.74 1019.30 1018.75 1018.16 1017.92 1017.60 1017.25 1016.95 1016.87 1016.89 1017.03 1016.83 1014.86 1012.90 1012.87 1012.81 1012.53 1012.56 1012.41 1012.21 1011.98 1011.34 1010.78 1009.83 1008.84 1008.02 1006.46 1006.75 1006.49 1006.59 1006.48 1006.49 1006.14 1004.22 1005.04 1004.13 1004.15 1003.40 1003.69 1003.46 1003.47 1003.58
1021.12 1020.64 1020.10 1019.46 1018.94 1018.35 1017.59 1016.98 1016.95 1016.75 1016.40 1016.32 1016.57 1016.80 1016.52 1014.08 1012.79 1012.75 1012.70 1012.22 1012.14 1012.13 1011.81 1011.72 1011.50 1011.17 1009.90 1008.80 1007.99 1007.32 1006.84 1006.44 1006.20 1006.31 1005.96 1006.10 1004.31 1001.77 1003.75 1004.10 1003.72 1003.38 1003.15 1002.74 1002.77
1021.01 1020.53 1019.95 1019.27 1018.68 1018.09 1017.35 1016.68 1016.48 1016.23 1015.91 1016.07 1016.35 1016.52 1015.23 1013.12 1012.88 1012.62 1012.44 1012.10 1011.94 1011.88 1011.68 1011.31 1011.42 1011.07 1010.25 1009.11 1007.90 1007.43 1007.24 1006.01 1005.01 1005.89 1005.23 1005.82 1002.76 1000.76 1002.73 1002.75 1001.96 1002.17 1001.68 1001.43 1001.57
1020.94 1020.52 1020.04 1019.39 1018.65 1018.07 1017.25 1016.36 1016.14 1015.96 1015.93 1016.11 1016.44 1016.26 1013.93 1012.82 1012.53 1011.74 1011.85 1011.51 1011.27 1011.44 1011.23 1010.96 1011.11 1010.64 1010.03 1009.41 1008.31 1007.14 1005.27 1004.61 1004.63 1004.55 1005.01 1005.04 1001.27 1001.94 1002.38 1002.24 1001.39 1001.29 1001.14 1001.15 1001.10
1020.80 1020.36 1019.93 1019.31 1018.52 1017.85 1016.84 1016.01 1015.85 1016.05 1016.19 1016.17 1016.06 1016.11 1013.77 1012.60 1011.87 1011.40 1011.17 1011.31 1011.14 1010.90 1010.59 1010.64 1010.43 1009.73 1009.24 1008.43 1006.10 1005.79 1005.33 1004.74 1004.10 1004.36 1004.61 1004.03 1001.48 1002.35 1002.34 1002.13 1001.45 1001.14 1000.88 1000.85 1000.74
1020.77 1020.23 1019.75 1019.10 1018.35 1017.56 1016.70 1016.00 1016.35 1016.24 1015.79 1015.51 1015.30 1015.13 1013.76 1012.81 1011.86 1011.05 1010.79 1010.83 1010.75 1010.63 1010.00 1010.21 1009.83 1008.31 1008.49 1008.28 1007.46 1006.94 1006.04 1005.22 1004.66 1004.51 1004.16 1003.19 1001.96 1001.94 1002.32 1001.96 1001.18 1000.84 1000.63 1000.39 1000.33
1020.57 1019.97 1019.36 1018.78 1018.21 1017.57 1017.01 1016.75 1017.23 1017.74 1016.47 1014.99 1014.64 1014.49 1013.51 1013.23 1012.18 1010.69 1010.71 1010.79 1010.59 1010.06 1009.89 1009.93 1008.98 1008.93 1008.96 1008.37 1007.87 1007.45 1006.91 1006.25 1005.71 1005.16 1004.69 1003.52 1002.51 1002.30 1002.29 1001.52 1001.06 1000.56 1000.16 1000.01 1000.04
1020.42 1019.74 1019.13 1018.56 1017.99 1017.56 1017.36 1017.12 1017.21 1017.58 1017.10 1014.90 1013.94 1013.42 1012.68 1012.53 1011.62 1010.55 1010.57 1010.47 1010.21 1009.98 1009.73 1009.17 1008.52 1008.55 1008.28 1007.96 1007.48 1006.96 1006.57 1006.32 1006.15 1005.44 1004.85 1004.37 1002.65 1001.90 1001.33 1001.15 1000.75 1000.20 1000.04 999.97 999.78
1020.07 1019.52 1018.88 1018.55 1018.20 1017.83 1017.23 1017.13 1017.34 1017.43 1016.43 1014.68 1013.30 1012.72 1012.32 1011.81 1011.33 1010.43 1010.33 1010.32 1009.95 1009.59 1009.48 1008.65 1007.94 1008.24 1007.82 1007.49 1007.29 1006.48 1006.68 1006.29 1006.17 1005.97 1004.60 1004.45 1001.87 1000.88 1000.42 999.99 999.93 999.76 999.44 999.21 999.03
1019.71 1018.96 1018.58 1018.57 1018.43 1017.75 1017.13 1017.02 1016.97 1017.12 1015.84 1014.45 1013.18 1012.58 1012.41 1012.29 1011.44 1010.26 1010.02 1009.86 1009.62 1009.44 1009.71 1007.87 1007.98 1007.81 1007.32 1006.81 1006.85 1006.38 1006.68 1006.35 1006.24 1005.92 1005.54 1004.53 1003.72 999.32 999.96 998.74 998.72 998.89 998.65 998.39 998.13
1019.06 1018.31 1017.85 1018.27 1018.36 1017.34 1017.12 1017.04 1016.79 1016.49 1015.15 1014.14 1013.47 1012.91 1012.48 1011.99 1011.42 1010.62 1010.18 1010.05 1009.53 1009.27 1009.09 1008.20 1008.05 1007.60 1006.70 1006.60 1006.25 1006.16 1006.06 1006.23 1006.44 1006.18 1004.90 1004.47 1004.10 998.39 998.86 998.09 998.02 998.08 998.00 998.05 997.65
1018.48 1017.77 1017.50 1017.57 1017.47 1017.25 1016.99 1016.69 1016.65 1015.85 1015.42 1014.67 1013.99 1013.45 1013.05 1012.35 1011.63 1011.25 1010.75 1010.19 1010.00 1009.76 1009.01 1008.29 1007.36 1007.02 1006.78 1006.37 1006.15 1005.96 1005.59 1005.33 1005.62 1004.82 1003.48 1003.59 1003.34 999.28 998.45 998.13 997.94 998.14 997.84 997.48 997.22
1018.07 1017.62 1017.52 1017.28 1017.20 1017.16 1016.84 1016.61 1016.22 1016.12 1015.52 1015.01 1014.52 1013.87 1013.39 1012.93 1012.25 1011.85 1011.29 1010.71 1010.54 1010.64 1010.44 1008.93 1007.92 1008.00 1006.46 1005.69 1005.40 1005.29 1004.98 1003.72 1003.28 1002.94 1002.81 1003.53 1001.13 999.01 998.61 998.11 997.89 997.92 997.74 997.44 997.05
1017.80 1017.60 1017.43 1017.09 1016.96 1017.02 1016.80 1016.49 1016.26 1016.13 1015.84 1015.40 1014.68 1014.06 1013.83 1013.71 1013.64 1012.73 1011.89 1011.41 1010.97 1011.06 1011.14 1010.23 1009.18 1008.50 1007.27 1005.80 1005.23 1004.92 1004.68 1004.38 1003.90 1003.27 1002.15 1001.36 1000.09 999.30 998.65 997.84 997.48 997.39 997.55 997.26 996.81
1018.51 1017.93 1017.45 1017.17 1016.99 1016.78 1016.85 1016.88 1016.55 1016.32 1015.97 1015.65 1015.29 1014.80 1014.26 1014.01 1013.90 1013.38 1012.31 1011.47 1011.16 1011.19 1011.32 1010.71 1009.57 1008.33 1007.91 1005.79 1004.97 1004.43 1004.44 1004.63 1004.16 1002.73 1001.52 1000.26 999.53 998.10 997.57 998.00 998.17 998.09 998.00 997.62 997.00
1018.45 1017.84 1017.27 1017.11 1016.87 1017.01 1017.43 1017.35 1016.98 1016.41 1016.20 1015.86 1015.42 1015.05 1014.83 1014.62 1014.31 1013.72 1012.60 1011.59 1011.30 1011.15 1011.17 1010.76 1010.29 1008.66 1008.47 1006.89 1005.31 1005.00 1004.46 1004.40 1003.82 1002.96 1001.47 999.93 998.42 997.81 997.85 998.50 998.77 998.59 998.04 997.34 996.81
1019.33 1018.17 1017.45 1017.19 1017.53 1018.47 1018.18 1018.02 1017.58 1016.56 1016.30 1015.93 1015.66 1015.37 1015.13 1014.94 1014.51 1013.96 1012.70 1011.97 1011.50 1011.51 1010.92 1010.88 1010.56 1009.02 1007.89 1007.02 1006.58 1005.92 1005.37 1005.02 1003.76 1003.13 1002.48 1001.44 999.31 998.48 998.53 998.61 998.85 998.27 997.76 997.37 997.19
1020.31 1019.30 1017.84 1017.48 1018.25 1018.74 1018.73 1018.26 1017.71 1016.89 1016.41 1016.12 1015.72 1015.62 1015.54 1015.30 1014.98 1013.89 1012.91 1012.08 1011.85 1011.46 1011.13 1011.25 1010.59 1009.25 1007.38 1007.20 1006.95 1006.28 1005.85 1005.50 1005.05 1004.27 1002.52 1001.39 999.36 998.24 998.54 998.16 998.41 998.33 997.86 997.45 997.30
1020.91 1020.03 1019.12 1019.05 1019.64 1019.42 1019.14 1018.27 1017.53 1016.81 1016.33 1016.33 1015.96 1015.62 1015.58 1015.37 1014.83 1013.75 1012.82 1012.19 1011.95 1011.81 1011.61 1011.50 1010.77 1010.05 1008.80 1007.81 1007.68 1006.96 1006.47 1006.01 1005.57 1004.09 1002.81 1001.09 1000.75 999.14 999.03 998.59 998.22 998.58 998.29 997.63 997.25
1021.62 1021.57 1021.51 1020.38 1019.94 1019.93 1019.58 1018.66 1017.89 1017.24 1016.73 1016.33 1015.85 1015.63 1015.46 1014.93 1014.18 1013.32 1012.65 1012.20 1012.01 1011.64 1011.41 1011.34 1010.25 1009.74 1008.91 1008.47 1007.84 1006.95 1006.24 1005.79 1005.18 1004.37 1003.22 1001.51 1000.95 1000.03 999.70 999.76 998.97 998.46 998.13 997.54 997.17
1022.44 1022.31 1021.82 1021.18 1020.58 1020.00 1019.33 1018.46 1017.84 1017.48 1017.37 1016.31 1015.88 1015.39 1015.13 1014.59 1014.09 1012.81 1012.65 1012.26 1012.07 1011.61 1011.51 1011.21 1010.13 1009.47 1008.50 1008.06 1007.52 1006.48 1005.71 1005.24 1004.26 1003.87 1002.84 1002.17 1001.37 1001.17 1000.26 1000.11 999.33 998.58 998.21 997.46 996.99
1022.68 1022.79 1022.43 1021.36 1020.69 1020.10 1019.21 1018.61 1018.09 1017.99 1016.73 1016.23 1015.71 1015.13 1014.22 1013.27 1012.83 1012.19 1011.95 1011.46 1011.95 1011.97 1011.67 1011.40 1010.77 1009.87 1008.23 1007.70 1007.31 1005.92 1004.14 1003.83 1003.33 1002.78 1002.27 1001.28 1001.13 1001.01 999.75 999.50 999.31 998.84 998.41 997.60 997.22
Thickness
5586 5589 5592 5595 5598 5601 5606 5610 5612 5616 5621 5624 5630 5633 5638 5644 5652 5659 5669 5679 5682 5686 5693 5695 5701 5703 5705 5709 5716 5717 5703 5714 5731 5732 5750 5764 5762 5778 5788 5783 5793 5804 5803 5810 5813
5581 5585 5589 5592 5595 5599 5602 5605 5608 5612 5614 5618 5623 5628 5633 5638 5646 5653 5664 5669 5674 5676 5683 5685 5690 5693 5690 5698 5704 5707 5705 5721 5748 5747 5747 5758 5758 5765 5765 5769 5778 5788 5802 5808 5809
5577 5580 5584 5587 5591 5595 5598 5600 5605 5609 5613 5618 5621 5623 5628 5634 5643 5660 5663 5663 5668 5671 5675 5679 5680 5683 5682 5689 5697 5706 5709 5735 5743 5745 5746 5748 5754 5763 5755 5755 5773 5778 5789 5794 5797
5575 5578 5581 5584 5587 5590 5593 5596 5598 5602 5606 5610 5614 5619 5624 5627 5643 5651 5654 5655 5657 5663 5666 5666 5667 5667 5674 5681 5696 5693 5715 5726 5735 5733 5735 5736 5752 5750 5754 5764 5774 5778 5784 5784 5787
5572 5575 5578 5581 5585 5588 5591 5592 5595 5599 5601 5602 5604 5606 5611 5622 5633 5642 5642 5644 5648 5649 5649 5653 5655 5660 5668 5678 5682 5689 5711 5713 5720 5721 5728 5731 5738 5743 5751 5769 5772 5774 5778 5782 5785
5569 5573 5577 5581 5583 5587 5591 5592 5594 5597 5599 5599 5599 5597 5597 5613 5630 5631 5632 5636 5637 5639 5641 5643 5647 5651 5656 5664 5670 5704 5696 5702 5707 5709 5713 5712 5739 5734 5752 5763 5771 5767 5775 5781 5785
5567 5570 5574 5578 5581 5585 5590 5595 5594 5595 5596 5596 5593 5590 5589 5609 5619 5620 5620 5625 5628 5629 5631 5633 5635 5635 5647 5652 5670 5676 5670 5682 5691 5699 5704 5706 5713 5742 5753 5751 5751 5760 5770 5782 5785
5563 5566 5569 5573 5577 5580 5585 5590 5590 5591 5591 5589 5585 5582 5589 5607 5607 5610 5612 5613 5614 5616 5620 5623 5622 5624 5629 5644 5654 5653 5652 5654 5694 5686 5703 5690 5702 5759 5753 5751 5759 5763 5776 5783 5789
5558 5560 5563 5567 5571 5574 5578 5584 5584 5583 5581 5578 5575 5572 5589 5597 5598 5604 5603 5604 5605 5603 5605 5609 5608 5612 5618 5618 5624 5637 5651 5661 5674 5692 5689 5679 5713 5736 5741 5740 5753 5761 5769 5774 5780
5554 5556 5558 5562 5566 5569 5575 5580 5578 5573 5570 5567 5566 5564 5580 5581 5586 5589 5592 5587 5586 5589 5593 5590 5592 5600 5607 5608 5624 5637 5639 5652 5655 5671 5669 5674 5701 5714 5724 5730 5740 5749 5757 5764 5770
5550 5553 5555 5557 5561 5566 5570 5572 5568 5566 5564 5564 5561 5555 5561 5565 5568 5570 5571 5569 5566 5565 5568 5570 5573 5591 5594 5594 5613 5614 5620 5627 5643 5657 5658 5672 5690 5700 5707 5715 5727 5739 5747 5757 5763
5547 5550 5553 5554 5556 5559 5561 5560 5552 5542 5548 5555 5551 5545 5548 5545 5544 5552 5550 5540 5535 5535 5539 5542 5555 5562 5565 5574 5584 5589 5591 5599 5619 5635 5641 5655 5666 5680 5687 5704 5719 5730 5740 5749 5755
5546 5547 5549 5550 5552 5551 5549 5547 5539 5533 5532 5544 5545 5541 5541 5536 5530 5532 5528 5522 5519 5518 5519 5519 5538 5540 5545 5553 5563 5575 5579 5590 5598 5617 5630 5632 5643 5667 5690 5699 5713 5726 5734 5740 5746
5546 5547 5546 5545 5545 5541 5544 5537 5530 5524 5530 5536 5538 5534 5532 5526 5518 5526 5519 5514 5514 5513 5513 5519 5531 5519 5525 5528 5543 5551 5570 5582 5590 5594 5605 5628 5623 5662 5689 5695 5706 5718 5728 5737 5743
5546 5547 5545 5539 5535 5540 5537 5530 5526 5523 5534 5531 5528 5530 5521 5508 5508 5520 5518 5510 5506 5509 5504 5521 5514 5510 5511 5522 5531 5538 5554 5567 5576 5580 5588 5606 5598 5676 5685 5693 5706 5715 5725 5733 5739
5548 5549 5547 5539 5532 5535 5529 5525 5523 5526 5523 5522 5519 5513 5510 5506 5504 5508 5506 5502 5504 5504 5507 5513 5513 5510 5517 5523 5528 5542 5543 5553 5560 5568 5567 5593 5592 5671 5678 5697 5706 5713 5720 5722 5733
5550 5550 5545 5538 5540 5529 5525 5525 5525 5525 5518 5512 5507 5505 5499 5497 5499 5495 5493 5491 5488 5491 5502 5508 5512 5513 5514 5513 5522 5525 5529 5537 5537 5548 5571 5596 5589 5660 5679 5688 5695 5698 5707 5720 5729
5550 5548 5541 5535 5529 5524 5522 5523 5520 5506 5508 5509 5500 5498 5490 5490 5493 5488 5487 5489 5491 5485 5476 5484 5501 5496 5513 5515 5519 5524 5531 5549 5547 5561 5583 5583 5600 5650 5674 5686 5692 5695 5704 5714 5723
5549 5545 5539 5532 5526 5519 5521 5516 5507 5505 5503 5496 5496 5492 5487 5482 5474 5478 5482 5481 5486 5481 5473 5476 5483 5483 5497 5513 5520 5521 5518 5546 5545 5555 5580 5589 5627 5649 5663 5677 5691 5695 5698 5705 5715
5538 5538 5536 5527 5520 5518 5515 5505 5502 5499 5496 5489 5476 5483 5479 5479 5472 5471 5476 5484 5483 5480 5476 5479 5478 5493 5478 5511 5519 5523 5538 5525 5533 5546 5563 5596 5610 5636 5653 5659 5670 5676 5685 5696 5709
5534 5543 5532 5523 5518 5515 5503 5497 5493 5494 5489 5482 5477 5475 5474 5467 5467 5466 5473 5482 5480 5479 5476 5477 5474 5493 5486 5492 5509 5516 5521 5525 5540 5555 5566 5588 5617 5641 5646 5646 5652 5665 5680 5695 5705
5520 5537 5526 5519 5513 5479 5493 5483 5481 5487 5483 5476 5472 5470 5468 5466 5461 5461 5468 5472 5476 5472 5475 5475 5466 5485 5492 5502 5505 5509 5512 5518 5530 5544 5556 5568 5596 5628 5633 5643 5650 5663 5676 5690 5700
5509 5509 5517 5515 5502 5490 5480 5478 5477 5479 5477 5470 5466 5465 5462 5456 5446 5457 5464 5470 5468 5468 5471 5469 5471 5480 5501 5500 5500 5505 5510 5515 5519 5528 5546 5559 5591 5626 5627 5641 5651 5655 5669 5682 5694
5502 5508 5507 5496 5478 5478 5470 5480 5478 5482 5477 5467 5463 5463 5456 5448 5458 5452 5458 5465 5463 5463 5465 5464 5465 5473 5484 5494 5492 5496 5502 5509 5509 5523 5541 5561 5572 5602 5613 5626 5641 5646 5659 5675 5691
5486 5484 5471 5488 5480 5467 5465 5471 5468 5467 5472 5467 5460 5458 5456 5446 5453 5454 5462 5461 5459 5461 5463 5463 5471 5479 5485 5485 5489 5497 5503 5507 5510 5520 5525 5562 5565 5590 5604 5610 5626 5640 5654 5670 5685
5477 5475 5469 5469 5465 5465 5466 5470 5473 5467 5459 5464 5458 5462 5458 5451 5453 5452 5455 5452 5447 5457 5457 5464 5473 5483 5489 5492 5493 5498 5507 5510 5519 5522 5529 5540 5547 5574 5594 5603 5617 5633 5646 5663 5680
5465 5460 5459 5466 5464 5462 5467 5467 5465 5459 5466 5465 5463 5458 5458 5470 5473 5471 5466 5467 5455 5450 5458 5454 5460 5471 5486 5494 5490 5499 5520 5522 5526 5531 5533 5537 5551 5564 5592 5604 5612 5626 5640 5655 5670